Location: Ferchesar
(52.6477°N, 12.4298°E)
Time: 16:03:28
(UTC+01:00)

AO-73 - Pass Details

Date: 01 November 2021
Orbit: 581 x 660 km, 97.6° (Epoch: 04 December)

Event Time Altitude Azimuth Distance (km) Brightness Sun altitude
Rises 05:46:07 0° 7° (N) 2,839 ? -12.6°
Reaches altitude 10° 05:48:24 10° 359° (N) 1,942 ? -12.3°
Maximum altitude 05:52:14 35° 294° (WNW) 976 ? -11.7°
Drops below altitude 10° 05:56:08 10° 228° (SW) 1,967 ? -11.1°
Sets 05:58:27 0° 220° (SW) 2,882 ? -10.8°
